This demonstration page uses our WeatherBlox Daily Observations layout. Learn more.

Left ArrowRight Arrow

44.89941, -97.11507

Hourly Observations for February 19, 2021

Temp ( °F °C ) Dew Point ( °F °C ) Humidity (%) Winds ( mph kmh ) Pressure ( in mb ) Visibility ( mi km ) Precip ( " mm )
12:53 am 00:53 Cloudy 2 -16.7 -1 -18.3 88 88 Calm 30.33 1027 8 13 0.00 0.00
1:53 am 01:53 Clear -3 -19.4 -6 -21.1 86 86 SSE 3 6 30.33 1027 8 13 0.00 0.00
2:53 am 02:53 Cloudy 0 -17.8 -3 -19.4 87 87 Calm 30.31 1026 8 13 0.00 0.00
3:53 am 03:53 Cloudy 0 -17.8 -3 -19.4 87 87 S 3 6 30.30 1026 8 13 0.00 0.00
4:53 am 04:53 Cloudy -1 -18.3 -4 -20 87 87 SW 3 6 30.30 1026 8 13 0.00 0.00
5:53 am 05:53 Cloudy 1 -17.2 -2 -18.9 87 87 Calm 30.30 1026 8 13 0.00 0.00
6:53 am 06:53 Cloudy 2 -16.7 -1 -18.3 88 88 S 3 6 30.28 1025 9 14 0.00 0.00
7:53 am 07:53 Cloudy 4 -15.6 1 -17.2 88 88 SE 3 6 30.28 1025 7 11 0.00 0.00
8:53 am 08:53 Cloudy with Mist and Fog 4 -15.6 2 -16.7 91 91 Calm 30.30 1026 6 10 0.00 0.00
9:53 am 09:53 Cloudy with Mist and Fog 7 -13.9 5 -15 91 91 SSE 5 7 30.30 1026 6 10 0.00 0.00
10:53 am 10:53 Mostly Cloudy 10 -12.2 6 -14.4 84 84 SSE 6 9 30.29 1026 9 14 0.00 0.00
11:53 am 11:53 Cloudy 13 -10.6 8 -13.3 81 81 S 6 9 30.30 1026 10 16 0.00 0.00
12:53 pm 12:53 Sunny 16 -8.9 10 -12.2 77 77 S 7 11 30.27 1025 10 16 0.00 0.00
1:53 pm 13:53 Sunny 19 -7.2 10 -12.2 68 68 SSW 13 20 30.26 1025 10 16 0.00 0.00
2:53 pm 14:53 Sunny 20 -6.7 11 -11.7 68 68 SSW 10 17 30.25 1024 10 16 0.00 0.00
3:53 pm 15:53 Sunny 20 -6.7 11 -11.7 68 68 S 8 13 30.25 1024 10 16 0.00 0.00
4:53 pm 16:53 Sunny 18 -7.8 10 -12.2 71 71 S 8 13 30.25 1024 10 16 0.00 0.00
5:53 pm 17:53 Sunny 16 -8.9 8 -13.3 71 71 S 7 11 30.24 1024 10 16 0.00 0.00
6:53 pm 18:53 Clear 12 -11.1 6 -14.4 77 77 SSE 6 9 30.25 1024 10 16 0.00 0.00
7:53 pm 19:53 Clear 9 -12.8 5 -15 84 84 S 10 17 30.25 1024 10 16 0.00 0.00
8:53 pm 20:53 Clear 7 -13.9 4 -15.6 87 87 S 8 13 30.26 1025 10 16 0.00 0.00
9:53 pm 21:53 Clear 7 -13.9 3 -16.1 84 84 SSE 9 15 30.25 1025 10 16 0.00 0.00
10:53 pm 22:53 Clear 5 -15 2 -16.7 87 87 SSE 7 11 30.26 1025 10 16 0.00 0.00
11:53 pm 23:53 Clear 2 -16.7 0 -17.8 91 91 SSE 7 11 30.24 1024 10 16 0.00 0.00

Powered by AerisWeather